• In Hungary
  • List of Countries
  • For 7 days
  • Water Temperature
  • Satellite Maps
  • Weather Map
  • News
  • Weather Widgets
  • user-avatar
    Login

    Hourly Weather Ko Mai Phai

    Today, 23 November, Thursday

    Time Temperature Precipitation Wind Pressure Humidity
    00:00 +27°C° 0 mm 2 mps 755 mmHg 94%
    01:00 +27°C° 0 mm 2 mps 755 mmHg 95%
    02:00 +26°C° 0 mm 2 mps 755 mmHg 95%
    03:00 +26°C° 0 mm 2 mps 755 mmHg 95%
    04:00 +26°C° 0 mm 2 mps 754 mmHg 95%
    05:00 +26°C° 0 mm 2 mps 755 mmHg 94%
    06:00 +26°C° 0 mm 2 mps 755 mmHg 94%
    07:00 +26°C° 0 mm 2 mps 755 mmHg 93%
    08:00 +28°C° 0 mm 2 mps 755 mmHg 87%
    09:00 +29°C° 0 mm 2 mps 755 mmHg 80%
    10:00 +31°C° 0 mm 3 mps 756 mmHg 74%
    11:00 +33°C° 0 mm 3 mps 755 mmHg 69%
    12:00 +34°C° 0 mm 3 mps 755 mmHg 64%
    13:00 +36°C° 0 mm 3 mps 755 mmHg 54%
    14:00 +36°C° 0 mm 3 mps 754 mmHg 55%
    15:00 +35°C° 0 mm 3 mps 754 mmHg 56%
    16:00 +35°C° 0 mm 3 mps 753 mmHg 58%
    17:00 +33°C° 0.2 mm 3 mps 754 mmHg 65%
    18:00 +31°C° 0.2 mm 3 mps 754 mmHg 73%
    19:00 +29°C° 0.2 mm 3 mps 754 mmHg 80%
    20:00 +28°C° 0.3 mm 2 mps 755 mmHg 83%
    21:00 +28°C° 0.3 mm 2 mps 755 mmHg 85%
    22:00 +28°C° 0.3 mm 2 mps 756 mmHg 88%
    23:00 +27°C° 0.1 mm 2 mps 756 mmHg 89%

    Tomorrow, 24 November, Friday

    Time Temperature Precipitation Wind Pressure Humidity
    00:00 +27°C° 0.1 mm 2 mps 755 mmHg 90%
    01:00 +27°C° 0.1 mm 2 mps 755 mmHg 92%
    02:00 +27°C° 0 mm 2 mps 755 mmHg 92%
    03:00 +27°C° 0 mm 2 mps 755 mmHg 93%
    04:00 +26°C° 0 mm 2 mps 755 mmHg 94%
    05:00 +27°C° 0 mm 2 mps 755 mmHg 93%
    06:00 +27°C° 0 mm 2 mps 755 mmHg 93%
    07:00 +27°C° 0 mm 2 mps 756 mmHg 92%
    08:00 +28°C° 0 mm 3 mps 756 mmHg 85%
    09:00 +30°C° 0 mm 3 mps 756 mmHg 77%
    10:00 +33°C° 0 mm 3 mps 757 mmHg 69%
    11:00 +33°C° 0.3 mm 3 mps 756 mmHg 68%
    12:00 +34°C° 0.3 mm 3 mps 756 mmHg 67%
    13:00 +34°C° 0.3 mm 3 mps 756 mmHg 66%
    14:00 +34°C° 0.8 mm 3 mps 755 mmHg 70%
    15:00 +33°C° 0.8 mm 3 mps 755 mmHg 73%
    16:00 +32°C° 0.8 mm 2 mps 754 mmHg 77%
    17:00 +30°C° 0.6 mm 2 mps 754 mmHg 81%
    18:00 +29°C° 0.6 mm 2 mps 755 mmHg 86%
    19:00 +28°C° 0.6 mm 2 mps 755 mmHg 91%
    20:00 +27°C° 0.1 mm 2 mps 756 mmHg 92%
    21:00 +27°C° 0.1 mm 3 mps 756 mmHg 93%
    22:00 +27°C° 0.1 mm 3 mps 757 mmHg 94%
    23:00 +27°C° 0.2 mm 3 mps 757 mmHg 95%

    Day after tomorrow, 25 November, Saturday

    Time Temperature Precipitation Wind Pressure Humidity
    00:00 +27°C° 0.2 mm 3 mps 757 mmHg 95%
    01:00 +26°C° 0.2 mm 3 mps 756 mmHg 95%
    02:00 +26°C° 0.1 mm 3 mps 756 mmHg 95%
    03:00 +26°C° 0.1 mm 3 mps 755 mmHg 95%
    04:00 +26°C° 0.1 mm 3 mps 755 mmHg 95%
    05:00 +26°C° 0 mm 3 mps 755 mmHg 95%
    06:00 +26°C° 0 mm 3 mps 756 mmHg 94%
    07:00 +26°C° 0 mm 3 mps 756 mmHg 94%
    08:00 +28°C° 0 mm 3 mps 756 mmHg 87%
    09:00 +29°C° 0 mm 3 mps 757 mmHg 80%
    10:00 +31°C° 0 mm 3 mps 757 mmHg 74%
    11:00 +31°C° 0.3 mm 3 mps 757 mmHg 74%
    12:00 +33°C° 0.3 mm 3 mps 756 mmHg 73%
    13:00 +32°C° 0.3 mm 2 mps 756 mmHg 73%
    14:00 +32°C° 0.8 mm 2 mps 755 mmHg 76%
    15:00 +31°C° 0.8 mm 2 mps 755 mmHg 79%
    16:00 +31°C° 0.8 mm 2 mps 754 mmHg 82%
    17:00 +30°C° 0.7 mm 2 mps 755 mmHg 85%
    18:00 +28°C° 0.7 mm 2 mps 755 mmHg 89%
    19:00 +27°C° 0.7 mm 2 mps 756 mmHg 93%
    20:00 +27°C° 0 mm 3 mps 756 mmHg 93%
    21:00 +27°C° 0 mm 3 mps 757 mmHg 94%
    22:00 +27°C° 0 mm 3 mps 758 mmHg 95%
    23:00 +26°C° 0 mm 3 mps 757 mmHg 96%

    26 November, Sunday

    Time Temperature Precipitation Wind Pressure Humidity
    00:00 +26°C° 0 mm 3 mps 757 mmHg 96%
    01:00 +26°C° 0 mm 3 mps 757 mmHg 96%
    02:00 +26°C° 0 mm 3 mps 756 mmHg 96%
    03:00 +26°C° 0 mm 3 mps 756 mmHg 96%
    04:00 +26°C° 0 mm 3 mps 755 mmHg 96%
    05:00 +26°C° 0 mm 2 mps 756 mmHg 96%
    06:00 +26°C° 0 mm 2 mps 756 mmHg 96%
    07:00 +26°C° 0 mm 2 mps 756 mmHg 95%
    08:00 +28°C° 0 mm 2 mps 757 mmHg 86%
    09:00 +30°C° 0 mm 2 mps 757 mmHg 78%
    10:00 +33°C° 0 mm 3 mps 758 mmHg 69%
    11:00 +33°C° 0.9 mm 3 mps 757 mmHg 72%
    12:00 +32°C° 0.9 mm 2 mps 756 mmHg 75%
    13:00 +32°C° 0.9 mm 2 mps 756 mmHg 77%
    14:00 +31°C° 1.6 mm 2 mps 755 mmHg 79%
    15:00 +31°C° 1.6 mm 2 mps 754 mmHg 81%
    16:00 +30°C° 1.6 mm 2 mps 754 mmHg 83%
    17:00 +29°C° 1.2 mm 2 mps 754 mmHg 87%
    18:00 +28°C° 1.2 mm 2 mps 755 mmHg 90%
    19:00 +27°C° 1.2 mm 3 mps 755 mmHg 93%
    20:00 +27°C° 0.4 mm 3 mps 756 mmHg 94%
    21:00 +27°C° 0.4 mm 3 mps 757 mmHg 95%
    22:00 +27°C° 0.4 mm 3 mps 757 mmHg 95%
    23:00 +26°C° 0 mm 3 mps 757 mmHg 96%

    27 November, Monday

    Time Temperature Precipitation Wind Pressure Humidity
    00:00 +26°C° 0 mm 3 mps 756 mmHg 96%
    01:00 +26°C° 0 mm 3 mps 756 mmHg 97%
    02:00 +26°C° 0 mm 2 mps 755 mmHg 97%
    03:00 +26°C° 0 mm 2 mps 755 mmHg 97%
    04:00 +26°C° 0 mm 2 mps 755 mmHg 97%
    05:00 +26°C° 0 mm 2 mps 755 mmHg 97%
    06:00 +26°C° 0 mm 2 mps 755 mmHg 96%
    07:00 +26°C° 0 mm 2 mps 756 mmHg 96%
    08:00 +28°C° 0 mm 2 mps 756 mmHg 88%
    09:00 +29°C° 0 mm 2 mps 757 mmHg 80%
    10:00 +31°C° 0 mm 2 mps 757 mmHg 73%
    11:00 +32°C° 0 mm 2 mps 756 mmHg 68%
    12:00 +34°C° 0 mm 2 mps 755 mmHg 63%
    13:00 +35°C° 0 mm 2 mps 755 mmHg 59%
    14:00 +34°C° 0.3 mm 2 mps 754 mmHg 63%
    15:00 +34°C° 0.3 mm 2 mps 754 mmHg 67%
    16:00 +32°C° 0.3 mm 2 mps 753 mmHg 71%
    17:00 +31°C° 0.6 mm 2 mps 753 mmHg 77%
    18:00 +29°C° 0.6 mm 2 mps 754 mmHg 83%
    19:00 +28°C° 0.6 mm 2 mps 755 mmHg 89%
    20:00 +27°C° 0.2 mm 2 mps 755 mmHg 91%
    21:00 +27°C° 0.2 mm 2 mps 756 mmHg 93%
    22:00 +27°C° 0.2 mm 1 mps 756 mmHg 94%
    23:00 +26°C° 0.2 mm 1 mps 756 mmHg 95%

    28 November, Tuesday

    Time Temperature Precipitation Wind Pressure Humidity
    00:00 +26°C° 0.2 mm 1 mps 755 mmHg 96%
    01:00 +26°C° 0.2 mm 1 mps 755 mmHg 96%
    02:00 +26°C° 0 mm 1 mps 755 mmHg 97%
    03:00 +26°C° 0 mm 1 mps 754 mmHg 97%
    04:00 +26°C° 0 mm 1 mps 754 mmHg 97%
    05:00 +26°C° 0.1 mm 1 mps 754 mmHg 97%
    06:00 +26°C° 0.1 mm 2 mps 755 mmHg 96%
    07:00 +26°C° 0.1 mm 2 mps 755 mmHg 96%
    08:00 +28°C° 0 mm 2 mps 756 mmHg 88%
    09:00 +30°C° 0 mm 2 mps 756 mmHg 80%
    10:00 +31°C° 0 mm 2 mps 756 mmHg 72%
    11:00 +31°C° 0.6 mm 2 mps 756 mmHg 73%
    12:00 +31°C° 0.6 mm 2 mps 755 mmHg 75%
    13:00 +31°C° 0.6 mm 2 mps 755 mmHg 76%
    14:00 +31°C° 1 mm 1 mps 754 mmHg 79%
    15:00 +30°C° 1 mm 1 mps 754 mmHg 81%
    16:00 +30°C° 1 mm 1 mps 753 mmHg 84%
    17:00 +29°C° 0.1 mm 1 mps 754 mmHg 86%
    18:00 +28°C° 0.1 mm 1 mps 754 mmHg 89%
    19:00 +27°C° 0.1 mm 1 mps 755 mmHg 91%
    20:00 +27°C° 0.5 mm 1 mps 755 mmHg 92%
    21:00 +27°C° 0.5 mm 2 mps 756 mmHg 93%
    22:00 +27°C° 0.5 mm 2 mps 756 mmHg 94%
    23:00 +26°C° 0.5 mm 2 mps 756 mmHg 94%
    Show more